Location: Campillo
(40.8621°N, 4.2488°W)
Time: 13:01:46
(UTC+00:00)

IRIS - Pass Details

Date: 11 May 2021
Orbit: 280 x 2662 km, 41.2° (Epoch: 13 June)

Event Time Altitude Azimuth Distance (km) Brightness Sun altitude
Rises 20:38:32 0° 278° (W) 1,924 8.7 -12.8°
Reaches altitude 10° 20:40:18 10° 277° (W) 1,120 7.4 -13.1°
Maximum altitude 20:42:38 79° 192° (SSW) 321 3.5 -13.4°
Enters shadow 20:43:47 30° 107° (ESE) 631 4.6 -13.6°
